Year,Month,Day,Hour,Minute,Value (Times are PST for windspeed in km/hr)
2008,06,09,00,00,0.00
2008,06,09,00,01,0.00
2008,06,09,00,02,0.00
2008,06,09,00,03,0.00
2008,06,09,00,04,0.00
2008,06,09,00,05,0.00
2008,06,09,00,06,0.00
2008,06,09,00,07,0.00
2008,06,09,00,08,0.00
2008,06,09,00,09,0.10
2008,06,09,00,10,0.60
2008,06,09,00,11,0.80
2008,06,09,00,12,0.30
2008,06,09,00,13,0.80
2008,06,09,00,14,0.10
2008,06,09,00,15,0.00
2008,06,09,00,16,0.00
2008,06,09,00,17,0.10
2008,06,09,00,18,0.30
2008,06,09,00,19,0.40
2008,06,09,00,20,0.00
2008,06,09,00,21,0.00
2008,06,09,00,22,0.10
2008,06,09,00,23,0.60
2008,06,09,00,24,0.20
2008,06,09,00,25,0.30
2008,06,09,00,26,0.40
2008,06,09,00,27,0.60
2008,06,09,00,28,0.30
2008,06,09,00,29,0.30
2008,06,09,00,30,0.30
2008,06,09,00,31,0.90
2008,06,09,00,32,0.90
2008,06,09,00,33,1.40
2008,06,09,00,34,0.90
2008,06,09,00,35,0.50
2008,06,09,00,36,0.70
2008,06,09,00,37,0.20
2008,06,09,00,38,0.00
2008,06,09,00,39,0.30
2008,06,09,00,40,0.00
2008,06,09,00,41,0.00
2008,06,09,00,42,0.00
2008,06,09,00,43,0.00
2008,06,09,00,44,0.00
2008,06,09,00,45,0.00
2008,06,09,00,46,0.00
2008,06,09,00,47,0.00
2008,06,09,00,48,0.00
2008,06,09,00,49,0.00
2008,06,09,00,50,0.00
2008,06,09,00,51,0.00
2008,06,09,00,52,0.00
2008,06,09,00,53,0.00
2008,06,09,00,54,0.00
2008,06,09,00,55,0.00
2008,06,09,00,56,0.00
2008,06,09,00,57,0.00
2008,06,09,00,58,0.00
2008,06,09,00,59,0.00
2008,06,09,01,00,0.00
2008,06,09,01,01,0.00
2008,06,09,01,02,0.00
2008,06,09,01,03,0.10
2008,06,09,01,04,0.40
2008,06,09,01,05,0.10
2008,06,09,01,06,0.00
2008,06,09,01,07,0.00
2008,06,09,01,08,0.00
2008,06,09,01,09,0.00
2008,06,09,01,10,0.00
2008,06,09,01,11,0.30
2008,06,09,01,12,0.00
2008,06,09,01,13,0.00
2008,06,09,01,14,0.00
2008,06,09,01,15,0.00
2008,06,09,01,16,0.00
2008,06,09,01,17,0.00
2008,06,09,01,18,0.00
2008,06,09,01,19,0.00
2008,06,09,01,20,0.00
2008,06,09,01,21,0.00
2008,06,09,01,22,0.00
2008,06,09,01,23,0.00
2008,06,09,01,24,0.00
2008,06,09,01,25,0.00
2008,06,09,01,26,0.00
2008,06,09,01,27,0.00
2008,06,09,01,28,0.00
2008,06,09,01,29,0.00
2008,06,09,01,30,0.00
2008,06,09,01,31,0.00
2008,06,09,01,32,0.00
2008,06,09,01,33,0.00
2008,06,09,01,34,0.00
2008,06,09,01,35,0.00
2008,06,09,01,36,0.00
2008,06,09,01,37,0.00
2008,06,09,01,38,0.00
2008,06,09,01,39,0.00
2008,06,09,01,40,0.00
2008,06,09,01,41,0.00
2008,06,09,01,42,0.00
2008,06,09,01,43,0.00
2008,06,09,01,44,0.00
2008,06,09,01,45,0.00
2008,06,09,01,46,0.00
2008,06,09,01,47,0.00
2008,06,09,01,48,0.30
2008,06,09,01,49,0.50
2008,06,09,01,50,0.40
2008,06,09,01,51,0.70
2008,06,09,01,52,0.50
2008,06,09,01,53,0.50
2008,06,09,01,54,0.60
2008,06,09,01,55,0.10
2008,06,09,01,56,0.00
2008,06,09,01,57,0.10
2008,06,09,01,58,0.10
2008,06,09,01,59,0.10
2008,06,09,02,00,0.10
2008,06,09,02,01,0.00
2008,06,09,02,02,0.00
2008,06,09,02,03,0.00
2008,06,09,02,04,0.00
2008,06,09,02,05,0.00
2008,06,09,02,06,0.00
2008,06,09,02,07,0.00
2008,06,09,02,08,0.00
2008,06,09,02,09,0.00
2008,06,09,02,10,0.00
2008,06,09,02,11,0.00
2008,06,09,02,12,0.00
2008,06,09,02,13,0.00
2008,06,09,02,14,0.00
2008,06,09,02,15,0.00
2008,06,09,02,16,0.00
2008,06,09,02,17,0.00
2008,06,09,02,18,0.00
2008,06,09,02,19,0.00
2008,06,09,02,20,0.00
2008,06,09,02,21,0.00
2008,06,09,02,22,0.00
2008,06,09,02,23,0.00
2008,06,09,02,24,0.00
2008,06,09,02,25,0.00
2008,06,09,02,26,0.00
2008,06,09,02,27,0.00
2008,06,09,02,28,0.00
2008,06,09,02,29,0.20
2008,06,09,02,30,0.00
2008,06,09,02,31,0.40
2008,06,09,02,32,0.00
2008,06,09,02,33,0.20
2008,06,09,02,34,0.00
2008,06,09,02,35,0.20
2008,06,09,02,36,2.00
2008,06,09,02,37,1.40
2008,06,09,02,38,1.60
2008,06,09,02,39,2.00
2008,06,09,02,40,2.30
2008,06,09,02,41,2.00
2008,06,09,02,42,1.10
2008,06,09,02,43,1.10
2008,06,09,02,44,1.60
2008,06,09,02,45,1.00
2008,06,09,02,46,1.60
2008,06,09,02,47,1.60
2008,06,09,02,48,2.40
2008,06,09,02,49,1.00
2008,06,09,02,50,0.90
2008,06,09,02,51,3.70
2008,06,09,02,52,2.00
2008,06,09,02,53,0.80
2008,06,09,02,54,0.50
2008,06,09,02,55,0.00
2008,06,09,02,56,0.00
2008,06,09,02,57,0.00
2008,06,09,02,58,0.00
2008,06,09,02,59,0.50
2008,06,09,03,00,0.40
2008,06,09,03,01,0.10
2008,06,09,03,02,0.20
2008,06,09,03,03,0.90
2008,06,09,03,04,0.10
2008,06,09,03,05,0.00
2008,06,09,03,06,2.10
2008,06,09,03,07,2.50
2008,06,09,03,08,2.50
2008,06,09,03,09,2.60
2008,06,09,03,10,2.30
2008,06,09,03,11,3.10
2008,06,09,03,12,3.50
2008,06,09,03,13,3.50
2008,06,09,03,14,3.00
2008,06,09,03,15,2.50
2008,06,09,03,16,1.30
2008,06,09,03,17,1.00
2008,06,09,03,18,0.60
2008,06,09,03,19,2.60
2008,06,09,03,20,2.80
2008,06,09,03,21,1.90
2008,06,09,03,22,1.20
2008,06,09,03,23,3.90
2008,06,09,03,24,5.10
2008,06,09,03,25,4.20
2008,06,09,03,26,2.00
2008,06,09,03,27,2.00
2008,06,09,03,28,2.40
2008,06,09,03,29,2.90
2008,06,09,03,30,2.20
2008,06,09,03,31,1.90
2008,06,09,03,32,0.20
2008,06,09,03,33,0.00
2008,06,09,03,34,0.90
2008,06,09,03,35,1.30
2008,06,09,03,36,0.50
2008,06,09,03,37,1.20
2008,06,09,03,38,0.60
2008,06,09,03,39,0.60
2008,06,09,03,40,0.30
2008,06,09,03,41,0.10
2008,06,09,03,42,0.00
2008,06,09,03,43,0.00
2008,06,09,03,44,0.40
2008,06,09,03,45,1.20
2008,06,09,03,46,0.30
2008,06,09,03,47,1.10
2008,06,09,03,48,0.70
2008,06,09,03,49,0.60
2008,06,09,03,50,1.20
2008,06,09,03,51,2.00
2008,06,09,03,52,1.70
2008,06,09,03,53,0.40
2008,06,09,03,54,0.40
2008,06,09,03,55,0.00
2008,06,09,03,56,0.10
2008,06,09,03,57,0.50
2008,06,09,03,58,1.40
2008,06,09,03,59,0.00
2008,06,09,04,00,0.70
2008,06,09,04,01,0.20
2008,06,09,04,02,0.00
2008,06,09,04,03,0.00
2008,06,09,04,04,0.10
2008,06,09,04,05,0.10
2008,06,09,04,06,0.30
2008,06,09,04,07,0.20
2008,06,09,04,08,0.80
2008,06,09,04,09,0.30
2008,06,09,04,10,1.00
2008,06,09,04,11,1.40
2008,06,09,04,12,1.70
2008,06,09,04,13,2.00
2008,06,09,04,14,2.60
2008,06,09,04,15,1.80
2008,06,09,04,16,3.30
2008,06,09,04,17,4.30
2008,06,09,04,18,5.10
2008,06,09,04,19,4.80
2008,06,09,04,20,3.80
2008,06,09,04,21,3.90
2008,06,09,04,22,3.10
2008,06,09,04,23,3.20
2008,06,09,04,24,1.30
2008,06,09,04,25,1.20
2008,06,09,04,26,1.90
2008,06,09,04,27,0.20
2008,06,09,04,28,0.50
2008,06,09,04,29,0.10
2008,06,09,04,30,0.80
2008,06,09,04,31,0.80
2008,06,09,04,32,1.00
2008,06,09,04,33,1.30
2008,06,09,04,34,1.40
2008,06,09,04,35,0.60
2008,06,09,04,36,0.10
2008,06,09,04,37,0.60
2008,06,09,04,38,0.90
2008,06,09,04,39,0.60
2008,06,09,04,40,0.60
2008,06,09,04,41,0.00
2008,06,09,04,42,1.10
2008,06,09,04,43,1.30
2008,06,09,04,44,3.10
2008,06,09,04,45,4.00
2008,06,09,04,46,4.00
2008,06,09,04,47,4.10
2008,06,09,04,48,3.40
2008,06,09,04,49,2.90
2008,06,09,04,50,3.20
2008,06,09,04,51,2.30
2008,06,09,04,52,1.00
2008,06,09,04,53,1.30
2008,06,09,04,54,0.60
2008,06,09,04,55,1.00
2008,06,09,04,56,1.50
2008,06,09,04,57,0.40
2008,06,09,04,58,0.90
2008,06,09,04,59,0.50
2008,06,09,05,00,0.80
2008,06,09,05,01,2.30
2008,06,09,05,02,2.20
2008,06,09,05,03,0.30
2008,06,09,05,04,0.60
2008,06,09,05,05,1.70
2008,06,09,05,06,0.70
2008,06,09,05,07,0.90
2008,06,09,05,08,0.70
2008,06,09,05,09,1.20
2008,06,09,05,10,3.20
2008,06,09,05,11,1.80
2008,06,09,05,12,3.90
2008,06,09,05,13,2.40
2008,06,09,05,14,2.70
2008,06,09,05,15,3.40
2008,06,09,05,16,2.50
2008,06,09,05,17,2.90
2008,06,09,05,18,1.70
2008,06,09,05,19,0.90
2008,06,09,05,20,0.00
2008,06,09,05,21,0.80
2008,06,09,05,22,2.10
2008,06,09,05,23,1.10
2008,06,09,05,24,2.90
2008,06,09,05,25,0.50
2008,06,09,05,26,0.20
2008,06,09,05,27,0.20
2008,06,09,05,28,2.00
2008,06,09,05,29,1.30
2008,06,09,05,30,1.60
2008,06,09,05,31,0.90
2008,06,09,05,32,0.30
2008,06,09,05,33,0.80
2008,06,09,05,34,0.40
2008,06,09,05,35,0.00
2008,06,09,05,36,0.00
2008,06,09,05,37,0.00
2008,06,09,05,38,0.00
2008,06,09,05,39,0.10
2008,06,09,05,40,0.00
2008,06,09,05,41,0.00
2008,06,09,05,42,0.00
2008,06,09,05,43,0.00
2008,06,09,05,44,0.00
2008,06,09,05,45,0.00
2008,06,09,05,46,0.00
2008,06,09,05,47,0.00
2008,06,09,05,48,0.00
2008,06,09,05,49,0.00
2008,06,09,05,50,0.00
2008,06,09,05,51,0.00
2008,06,09,05,52,0.00
2008,06,09,05,53,0.10
2008,06,09,05,54,0.10
2008,06,09,05,55,0.00
2008,06,09,05,56,0.00
2008,06,09,05,57,0.10
2008,06,09,05,58,0.20
2008,06,09,05,59,0.20
2008,06,09,06,00,0.30
2008,06,09,06,01,0.20
2008,06,09,06,02,0.50
2008,06,09,06,03,0.20
2008,06,09,06,04,0.10
2008,06,09,06,05,0.20
2008,06,09,06,06,0.20
2008,06,09,06,07,0.20
2008,06,09,06,08,0.20
2008,06,09,06,09,0.10
2008,06,09,06,10,0.20
2008,06,09,06,11,0.20
2008,06,09,06,12,0.10
2008,06,09,06,13,0.20
2008,06,09,06,14,0.80
2008,06,09,06,15,1.30
2008,06,09,06,16,0.90
2008,06,09,06,17,0.90
2008,06,09,06,18,0.90
2008,06,09,06,19,0.30
2008,06,09,06,20,0.30
2008,06,09,06,21,0.00
2008,06,09,06,22,0.20
2008,06,09,06,23,0.20
2008,06,09,06,24,0.10
2008,06,09,06,25,0.30
2008,06,09,06,26,0.20
2008,06,09,06,27,0.10
2008,06,09,06,28,0.40
2008,06,09,06,29,0.10
2008,06,09,06,30,0.10
2008,06,09,06,31,0.20
2008,06,09,06,32,0.00
2008,06,09,06,33,0.00
2008,06,09,06,34,0.10
2008,06,09,06,35,0.00
2008,06,09,06,36,0.00
2008,06,09,06,37,0.00
2008,06,09,06,38,0.00
2008,06,09,06,39,0.00
2008,06,09,06,40,0.00
2008,06,09,06,41,0.00
2008,06,09,06,42,0.00
2008,06,09,06,43,0.00
2008,06,09,06,44,0.00
2008,06,09,06,45,0.10
2008,06,09,06,46,0.10
2008,06,09,06,47,0.20
2008,06,09,06,48,0.00
2008,06,09,06,49,0.40
2008,06,09,06,50,0.10
2008,06,09,06,51,0.80
2008,06,09,06,52,0.30
2008,06,09,06,53,0.20
2008,06,09,06,54,0.50
2008,06,09,06,55,0.20
2008,06,09,06,56,0.20
2008,06,09,06,57,0.20
2008,06,09,06,58,0.10
2008,06,09,06,59,0.40
2008,06,09,07,00,0.20
2008,06,09,07,01,0.30
2008,06,09,07,02,0.00
2008,06,09,07,03,0.20
2008,06,09,07,04,0.30
2008,06,09,07,05,0.00
2008,06,09,07,06,0.10
2008,06,09,07,07,0.10
2008,06,09,07,08,0.20
2008,06,09,07,09,0.00
2008,06,09,07,10,0.10
2008,06,09,07,11,0.20
2008,06,09,07,12,0.00
2008,06,09,07,13,0.30
2008,06,09,07,14,0.50
2008,06,09,07,15,0.50
2008,06,09,07,16,0.00
2008,06,09,07,17,0.30
2008,06,09,07,18,0.20
2008,06,09,07,19,0.60
2008,06,09,07,20,0.60
2008,06,09,07,21,0.30
2008,06,09,07,22,0.10
2008,06,09,07,23,0.30
2008,06,09,07,24,0.20
2008,06,09,07,25,0.10
2008,06,09,07,26,0.90
2008,06,09,07,27,0.10
2008,06,09,07,28,0.30
2008,06,09,07,29,0.50
2008,06,09,07,30,0.10
2008,06,09,07,31,0.20
2008,06,09,07,32,0.40
2008,06,09,07,33,0.70
2008,06,09,07,34,1.30
2008,06,09,07,35,1.50
2008,06,09,07,36,2.70
2008,06,09,07,37,1.30
2008,06,09,07,38,3.60
2008,06,09,07,39,2.70
2008,06,09,07,40,1.70
2008,06,09,07,41,0.40
2008,06,09,07,42,2.20
2008,06,09,07,43,0.30
2008,06,09,07,44,1.50
2008,06,09,07,45,1.50
2008,06,09,07,46,3.00
2008,06,09,07,47,3.60
2008,06,09,07,48,4.20
2008,06,09,07,49,1.50
2008,06,09,07,50,1.90
2008,06,09,07,51,1.90
2008,06,09,07,52,1.40
2008,06,09,07,53,0.90
2008,06,09,07,54,1.20
2008,06,09,07,55,2.50
2008,06,09,07,56,0.70
2008,06,09,07,57,1.40
2008,06,09,07,58,2.90
2008,06,09,07,59,0.60
2008,06,09,08,00,2.70
2008,06,09,08,01,2.90
2008,06,09,08,02,2.20
2008,06,09,08,03,1.90
2008,06,09,08,04,2.10
2008,06,09,08,05,1.80
2008,06,09,08,06,3.70
2008,06,09,08,07,3.10
2008,06,09,08,08,0.90
2008,06,09,08,09,1.90
2008,06,09,08,10,2.90
2008,06,09,08,11,6.40
2008,06,09,08,12,4.10
2008,06,09,08,13,5.10
2008,06,09,08,14,2.60
2008,06,09,08,15,2.10
2008,06,09,08,16,3.50
2008,06,09,08,17,1.90
2008,06,09,08,18,3.40
2008,06,09,08,19,2.90
2008,06,09,08,20,5.40
2008,06,09,08,21,1.90
2008,06,09,08,22,2.70
2008,06,09,08,23,3.80
2008,06,09,08,24,4.70
2008,06,09,08,25,4.30
2008,06,09,08,26,3.60
2008,06,09,08,27,4.20
2008,06,09,08,28,5.80
2008,06,09,08,29,2.50
2008,06,09,08,30,2.10
2008,06,09,08,31,2.40
2008,06,09,08,32,3.40
2008,06,09,08,33,3.40
2008,06,09,08,34,3.10
2008,06,09,08,35,2.30
2008,06,09,08,36,0.90
2008,06,09,08,37,2.00
2008,06,09,08,38,0.90
2008,06,09,08,39,2.00
2008,06,09,08,40,2.20
2008,06,09,08,41,0.70
2008,06,09,08,42,1.40
2008,06,09,08,43,1.70
2008,06,09,08,44,1.90
2008,06,09,08,45,3.80
2008,06,09,08,46,3.20
2008,06,09,08,47,1.90
2008,06,09,08,48,0.30
2008,06,09,08,49,1.20
2008,06,09,08,50,3.20
2008,06,09,08,51,1.40
2008,06,09,08,52,3.90
2008,06,09,08,53,6.50
2008,06,09,08,54,5.80
2008,06,09,08,55,2.60
2008,06,09,08,56,1.80
2008,06,09,08,57,6.90
2008,06,09,08,58,4.90
2008,06,09,08,59,3.20
2008,06,09,09,00,5.60
2008,06,09,09,01,4.10
2008,06,09,09,02,2.90
2008,06,09,09,03,4.10
2008,06,09,09,04,3.40
2008,06,09,09,05,3.50
2008,06,09,09,06,3.40
2008,06,09,09,07,3.40
2008,06,09,09,08,1.10
2008,06,09,09,09,0.60
2008,06,09,09,10,1.50
2008,06,09,09,11,1.90
2008,06,09,09,12,4.30
2008,06,09,09,13,4.70
2008,06,09,09,14,4.20
2008,06,09,09,15,3.60
2008,06,09,09,16,4.40
2008,06,09,09,17,3.70
2008,06,09,09,18,5.10
2008,06,09,09,19,5.50
2008,06,09,09,20,3.80
2008,06,09,09,21,3.70
2008,06,09,09,22,4.10
2008,06,09,09,23,3.30
2008,06,09,09,24,2.20
2008,06,09,09,25,1.90
2008,06,09,09,26,4.30
2008,06,09,09,27,5.60
2008,06,09,09,28,4.00
2008,06,09,09,29,3.40
2008,06,09,09,30,3.70
2008,06,09,09,31,1.50
2008,06,09,09,32,1.30
2008,06,09,09,33,3.70
2008,06,09,09,34,1.50
2008,06,09,09,35,0.60
2008,06,09,09,36,1.80
2008,06,09,09,37,1.90
2008,06,09,09,38,2.80
2008,06,09,09,39,1.30
2008,06,09,09,40,2.80
2008,06,09,09,41,4.00
2008,06,09,09,42,3.20
2008,06,09,09,43,4.50
2008,06,09,09,44,4.80
2008,06,09,09,45,2.50
2008,06,09,09,46,1.30
2008,06,09,09,47,1.20
2008,06,09,09,48,0.40
2008,06,09,09,49,1.30
2008,06,09,09,50,3.30
2008,06,09,09,51,6.00
2008,06,09,09,52,6.50
2008,06,09,09,53,6.20
2008,06,09,09,54,5.30
2008,06,09,09,55,4.80
2008,06,09,09,56,5.30
2008,06,09,09,57,4.30
2008,06,09,09,58,3.10
2008,06,09,09,59,5.20
2008,06,09,10,00,4.80
2008,06,09,10,01,4.70
2008,06,09,10,02,6.90
2008,06,09,10,03,4.10
2008,06,09,10,04,4.40
2008,06,09,10,05,3.00
2008,06,09,10,06,4.30
2008,06,09,10,07,2.70
2008,06,09,10,08,1.90
2008,06,09,10,09,1.90
2008,06,09,10,10,0.50
2008,06,09,10,11,0.80
2008,06,09,10,12,0.40
2008,06,09,10,13,0.40
2008,06,09,10,14,1.10
2008,06,09,10,15,1.60
2008,06,09,10,16,1.90
2008,06,09,10,17,1.40
2008,06,09,10,18,0.70
2008,06,09,10,19,1.60
2008,06,09,10,20,1.80
2008,06,09,10,21,1.80
2008,06,09,10,22,2.40
2008,06,09,10,23,3.00
2008,06,09,10,24,3.00
2008,06,09,10,25,3.90
2008,06,09,10,26,3.60
2008,06,09,10,27,4.10
2008,06,09,10,28,4.50
2008,06,09,10,29,3.60
2008,06,09,10,30,4.40
2008,06,09,10,31,7.80
2008,06,09,10,32,6.50
2008,06,09,10,33,6.00
2008,06,09,10,34,2.90
2008,06,09,10,35,2.30
2008,06,09,10,36,3.30
2008,06,09,10,37,1.90
2008,06,09,10,38,4.10
2008,06,09,10,39,4.80
2008,06,09,10,40,5.40
2008,06,09,10,41,4.60
2008,06,09,10,42,3.90
2008,06,09,10,43,4.10
2008,06,09,10,44,8.10
2008,06,09,10,45,4.70
2008,06,09,10,46,2.30
2008,06,09,10,47,2.70
2008,06,09,10,48,3.30
2008,06,09,10,49,4.00
2008,06,09,10,50,3.80
2008,06,09,10,51,4.50
2008,06,09,10,52,4.50
2008,06,09,10,53,6.10
2008,06,09,10,54,5.20
2008,06,09,10,55,4.20
2008,06,09,10,56,3.00
2008,06,09,10,57,4.80
2008,06,09,10,58,3.30
2008,06,09,10,59,3.80
2008,06,09,11,00,3.10
2008,06,09,11,01,3.50
2008,06,09,11,02,2.10
2008,06,09,11,03,3.80
2008,06,09,11,04,3.80
2008,06,09,11,05,3.90
2008,06,09,11,06,5.00
2008,06,09,11,07,4.50
2008,06,09,11,08,2.80
2008,06,09,11,09,4.20
2008,06,09,11,10,5.50
2008,06,09,11,11,6.40
2008,06,09,11,12,4.40
2008,06,09,11,13,5.90
2008,06,09,11,14,4.00
2008,06,09,11,15,3.70
2008,06,09,11,16,4.30
2008,06,09,11,17,3.90
2008,06,09,11,18,7.30
2008,06,09,11,19,8.40
2008,06,09,11,20,7.40
2008,06,09,11,21,4.70
2008,06,09,11,22,6.40
2008,06,09,11,23,3.40
2008,06,09,11,24,1.90
2008,06,09,11,25,5.20
2008,06,09,11,26,5.20
2008,06,09,11,27,4.60
2008,06,09,11,28,4.50
2008,06,09,11,29,6.30
2008,06,09,11,30,6.80
2008,06,09,11,31,5.60
2008,06,09,11,32,5.80
2008,06,09,11,33,7.40
2008,06,09,11,34,6.40
2008,06,09,11,35,6.20
2008,06,09,11,36,2.70
2008,06,09,11,37,5.60
2008,06,09,11,38,6.50
2008,06,09,11,39,5.40
2008,06,09,11,40,6.70
2008,06,09,11,41,3.00
2008,06,09,11,42,5.20
2008,06,09,11,43,2.80
2008,06,09,11,44,3.00
2008,06,09,11,45,2.60
2008,06,09,11,46,6.50
2008,06,09,11,47,3.60
2008,06,09,11,48,5.30
2008,06,09,11,49,7.10
2008,06,09,11,50,2.90
2008,06,09,11,51,2.70
2008,06,09,11,52,6.30
2008,06,09,11,53,5.10
2008,06,09,11,54,6.70
2008,06,09,11,55,3.20
2008,06,09,11,56,1.90
2008,06,09,11,57,5.60
2008,06,09,11,58,3.10
2008,06,09,11,59,4.30
2008,06,09,12,00,6.40
2008,06,09,12,01,6.00
2008,06,09,12,02,3.20
2008,06,09,12,03,4.70
2008,06,09,12,04,3.10
2008,06,09,12,05,5.00
2008,06,09,12,06,2.30
2008,06,09,12,07,4.10
2008,06,09,12,08,7.10
2008,06,09,12,09,6.90
2008,06,09,12,10,8.50
2008,06,09,12,11,8.10
2008,06,09,12,12,7.20
2008,06,09,12,13,4.50
2008,06,09,12,14,4.70
2008,06,09,12,15,6.40
2008,06,09,12,16,4.60
2008,06,09,12,17,8.20
2008,06,09,12,18,6.80
2008,06,09,12,19,5.40
2008,06,09,12,20,6.80
2008,06,09,12,21,4.60
2008,06,09,12,22,3.10
2008,06,09,12,23,7.10
2008,06,09,12,24,8.20
2008,06,09,12,25,8.10
2008,06,09,12,26,10.40
2008,06,09,12,27,8.60
2008,06,09,12,28,10.80
2008,06,09,12,29,10.90
2008,06,09,12,30,10.90
2008,06,09,12,31,5.20
2008,06,09,12,32,8.30
2008,06,09,12,33,6.20
2008,06,09,12,34,4.70
2008,06,09,12,35,6.40
2008,06,09,12,36,7.50
2008,06,09,12,37,8.70
2008,06,09,12,38,6.40
2008,06,09,12,39,9.50
2008,06,09,12,40,8.00
2008,06,09,12,41,4.70
2008,06,09,12,42,8.00
2008,06,09,12,43,5.80
2008,06,09,12,44,2.60
2008,06,09,12,45,4.30
2008,06,09,12,46,2.20
2008,06,09,12,47,2.50
2008,06,09,12,48,5.90
2008,06,09,12,49,1.10
2008,06,09,12,50,1.00
2008,06,09,12,51,1.90
2008,06,09,12,52,5.10
2008,06,09,12,53,7.30
2008,06,09,12,54,3.00
2008,06,09,12,55,4.20
2008,06,09,12,56,5.20
2008,06,09,12,57,7.70
2008,06,09,12,58,5.80
2008,06,09,12,59,4.80
2008,06,09,13,00,5.30
2008,06,09,13,01,4.30
2008,06,09,13,02,4.40
2008,06,09,13,03,1.60
2008,06,09,13,04,2.60
2008,06,09,13,05,3.30
2008,06,09,13,06,3.30
2008,06,09,13,07,5.30
2008,06,09,13,08,5.80
2008,06,09,13,09,6.30
2008,06,09,13,10,8.90
2008,06,09,13,11,7.20
2008,06,09,13,12,8.10
2008,06,09,13,13,4.10
2008,06,09,13,14,6.90
2008,06,09,13,15,6.60
2008,06,09,13,16,5.10
2008,06,09,13,17,3.90
2008,06,09,13,18,4.60
2008,06,09,13,19,4.20
2008,06,09,13,20,2.90
2008,06,09,13,21,3.90
2008,06,09,13,22,2.90
2008,06,09,13,23,4.10
2008,06,09,13,24,2.30
2008,06,09,13,25,4.20
2008,06,09,13,26,3.40
2008,06,09,13,27,6.60
2008,06,09,13,28,5.70
2008,06,09,13,29,5.10
2008,06,09,13,30,2.90
2008,06,09,13,31,1.00
2008,06,09,13,32,2.50
2008,06,09,13,33,2.50
2008,06,09,13,34,4.10
2008,06,09,13,35,1.90
2008,06,09,13,36,1.50
2008,06,09,13,37,4.70
2008,06,09,13,38,2.60
2008,06,09,13,39,0.60
2008,06,09,13,40,1.40
2008,06,09,13,41,4.60
2008,06,09,13,42,3.10
2008,06,09,13,43,2.20
2008,06,09,13,44,4.50
2008,06,09,13,45,5.10
2008,06,09,13,46,2.00
2008,06,09,13,47,6.50
2008,06,09,13,48,5.60
2008,06,09,13,49,4.00
2008,06,09,13,50,2.40
2008,06,09,13,51,4.90
2008,06,09,13,52,1.80
2008,06,09,13,53,4.20
2008,06,09,13,54,1.30
2008,06,09,13,55,2.20
2008,06,09,13,56,4.40
2008,06,09,13,57,4.40
2008,06,09,13,58,1.90
2008,06,09,13,59,1.40
2008,06,09,14,00,4.30
2008,06,09,14,01,1.20
2008,06,09,14,02,2.10
2008,06,09,14,03,1.50
2008,06,09,14,04,2.10
2008,06,09,14,05,1.20
2008,06,09,14,06,0.40
2008,06,09,14,07,0.70
2008,06,09,14,08,0.50
2008,06,09,14,09,0.10
2008,06,09,14,10,0.30
2008,06,09,14,11,1.20
2008,06,09,14,12,1.40
2008,06,09,14,13,3.50
2008,06,09,14,14,2.50
2008,06,09,14,15,0.60
2008,06,09,14,16,1.40
2008,06,09,14,17,0.70
2008,06,09,14,18,1.30
2008,06,09,14,19,3.90
2008,06,09,14,20,0.70
2008,06,09,14,21,0.80
2008,06,09,14,22,0.30
2008,06,09,14,23,0.20
2008,06,09,14,24,0.10
2008,06,09,14,25,0.30
2008,06,09,14,26,1.40
2008,06,09,14,27,0.90
2008,06,09,14,28,3.10
2008,06,09,14,29,5.10
2008,06,09,14,30,4.10
2008,06,09,14,31,2.40
2008,06,09,14,32,1.20
2008,06,09,14,33,0.50
2008,06,09,14,34,0.00
2008,06,09,14,35,0.20
2008,06,09,14,36,0.00
2008,06,09,14,37,0.40
2008,06,09,14,38,0.90
2008,06,09,14,39,1.10
2008,06,09,14,40,0.40
2008,06,09,14,41,0.50
2008,06,09,14,42,1.40
2008,06,09,14,43,1.90
2008,06,09,14,44,3.10
2008,06,09,14,45,6.00
2008,06,09,14,46,4.60
2008,06,09,14,47,2.50
2008,06,09,14,48,0.60
2008,06,09,14,49,1.70
2008,06,09,14,50,0.80
2008,06,09,14,51,0.30
2008,06,09,14,52,0.40
2008,06,09,14,53,1.30
2008,06,09,14,54,0.90
2008,06,09,14,55,0.40
2008,06,09,14,56,0.60
2008,06,09,14,57,0.30
2008,06,09,14,58,1.30
2008,06,09,14,59,0.90
2008,06,09,15,00,5.40
2008,06,09,15,01,5.90
2008,06,09,15,02,8.50
2008,06,09,15,03,7.60
2008,06,09,15,04,4.50
2008,06,09,15,05,6.80
2008,06,09,15,06,3.60
2008,06,09,15,07,1.00
2008,06,09,15,08,4.70
2008,06,09,15,09,3.10
2008,06,09,15,10,1.40
2008,06,09,15,11,1.50
2008,06,09,15,12,3.00
2008,06,09,15,13,1.40
2008,06,09,15,14,0.80
2008,06,09,15,15,3.00
2008,06,09,15,16,3.00
2008,06,09,15,17,2.20
2008,06,09,15,18,6.60
2008,06,09,15,19,2.80
2008,06,09,15,20,2.90
2008,06,09,15,21,1.90
2008,06,09,15,22,4.30
2008,06,09,15,23,5.50
2008,06,09,15,24,6.40
2008,06,09,15,25,5.80
2008,06,09,15,26,5.00
2008,06,09,15,27,4.60
2008,06,09,15,28,1.90
2008,06,09,15,29,1.40
2008,06,09,15,30,2.10
2008,06,09,15,31,1.10
2008,06,09,15,32,0.30
2008,06,09,15,33,0.10
2008,06,09,15,34,0.10
2008,06,09,15,35,1.70
2008,06,09,15,36,0.80
2008,06,09,15,37,0.90
2008,06,09,15,38,1.90
2008,06,09,15,39,2.20
2008,06,09,15,40,1.00
2008,06,09,15,41,1.80
2008,06,09,15,42,0.60
2008,06,09,15,43,1.10
2008,06,09,15,44,0.20
2008,06,09,15,45,3.10
2008,06,09,15,46,1.70
2008,06,09,15,47,2.80
2008,06,09,15,48,3.00
2008,06,09,15,49,1.40
2008,06,09,15,50,4.40
2008,06,09,15,51,4.20
2008,06,09,15,52,1.40
2008,06,09,15,53,0.20
2008,06,09,15,54,1.40
2008,06,09,15,55,1.90
2008,06,09,15,56,1.50
2008,06,09,15,57,0.00
2008,06,09,15,58,0.90
2008,06,09,15,59,0.00
2008,06,09,16,00,0.00
2008,06,09,16,01,0.00
2008,06,09,16,02,0.00
2008,06,09,16,03,0.00
2008,06,09,16,04,0.10
2008,06,09,16,05,2.00
2008,06,09,16,06,2.00
2008,06,09,16,07,1.70
2008,06,09,16,08,0.20
2008,06,09,16,09,2.20
2008,06,09,16,10,0.70
2008,06,09,16,11,2.30
2008,06,09,16,12,1.50
2008,06,09,16,13,2.40
2008,06,09,16,14,1.30
2008,06,09,16,15,1.00
2008,06,09,16,16,2.70
2008,06,09,16,17,3.20
2008,06,09,16,18,0.20
2008,06,09,16,19,1.10
2008,06,09,16,20,2.00
2008,06,09,16,21,2.10
2008,06,09,16,22,0.60
2008,06,09,16,23,1.80
2008,06,09,16,24,0.50
2008,06,09,16,25,2.80
2008,06,09,16,26,2.10
2008,06,09,16,27,2.50
2008,06,09,16,28,2.90
2008,06,09,16,29,7.50
2008,06,09,16,30,5.20
2008,06,09,16,31,4.10
2008,06,09,16,32,1.00
2008,06,09,16,33,1.40
2008,06,09,16,34,3.10
2008,06,09,16,35,1.70
2008,06,09,16,36,3.60
2008,06,09,16,37,0.30
2008,06,09,16,38,0.60
2008,06,09,16,39,0.20
2008,06,09,16,40,1.00
2008,06,09,16,41,1.50
2008,06,09,16,42,0.50
2008,06,09,16,43,3.80
2008,06,09,16,44,2.10
2008,06,09,16,45,2.90
2008,06,09,16,46,1.80
2008,06,09,16,47,0.90
2008,06,09,16,48,1.70
2008,06,09,16,49,1.30
2008,06,09,16,50,1.00
2008,06,09,16,51,0.00
2008,06,09,16,52,0.00
2008,06,09,16,53,0.00
2008,06,09,16,54,0.60
2008,06,09,16,55,1.50
2008,06,09,16,56,0.40
2008,06,09,16,57,0.00
2008,06,09,16,58,0.00
2008,06,09,16,59,1.90
2008,06,09,17,00,3.00
2008,06,09,17,01,0.60
2008,06,09,17,02,3.00
2008,06,09,17,03,6.00
2008,06,09,17,04,6.20
2008,06,09,17,05,5.40
2008,06,09,17,06,6.40
2008,06,09,17,07,13.20
2008,06,09,17,08,8.10
2008,06,09,17,09,11.10
2008,06,09,17,10,7.80
2008,06,09,17,11,5.60
2008,06,09,17,12,6.80
2008,06,09,17,13,9.00
2008,06,09,17,14,7.00
2008,06,09,17,15,11.20
2008,06,09,17,16,24.80
2008,06,09,17,17,17.30
2008,06,09,17,18,21.30
2008,06,09,17,19,24.60
2008,06,09,17,20,20.30
2008,06,09,17,21,14.20
2008,06,09,17,22,16.30
2008,06,09,17,23,28.60
2008,06,09,17,24,22.80
2008,06,09,17,25,19.20
2008,06,09,17,26,22.30
2008,06,09,17,27,20.90
2008,06,09,17,28,21.30
2008,06,09,17,29,31.80
2008,06,09,17,30,21.10
2008,06,09,17,31,21.40
2008,06,09,17,32,24.00
2008,06,09,17,33,17.20
2008,06,09,17,34,16.20
2008,06,09,17,35,19.50
2008,06,09,17,36,20.30
2008,06,09,17,37,13.00
2008,06,09,17,38,8.70
2008,06,09,17,39,21.00
2008,06,09,17,40,16.50
2008,06,09,17,41,16.00
2008,06,09,17,42,12.70
2008,06,09,17,43,18.30
2008,06,09,17,44,18.50
2008,06,09,17,45,30.70
2008,06,09,17,46,25.60
2008,06,09,17,47,32.40
2008,06,09,17,48,25.50
2008,06,09,17,49,30.90
2008,06,09,17,50,38.30
2008,06,09,17,51,29.30
2008,06,09,17,52,20.00
2008,06,09,17,53,32.50
2008,06,09,17,54,33.00
2008,06,09,17,55,34.50
2008,06,09,17,56,31.30
2008,06,09,17,57,26.20
2008,06,09,17,58,28.50
2008,06,09,17,59,28.30
2008,06,09,18,00,34.30
2008,06,09,18,01,27.60
2008,06,09,18,02,33.10
2008,06,09,18,03,13.00
2008,06,09,18,04,30.20